Regional Weather Roundup
Issued by NWS

Home | Current Version | Previous Version | Text Only | Print | Product List | Glossary Off
Versions: 1 2 3 4 5 6 7 8 9 10 11 12 13 14 15 16 17 18 19 20 21 22 23 24 25 26 27 28 29 30 31 32 33 34 35 36 37 38 39 40 41 42 43 44 45 46 47 48 49 50

000
ASUS43 KMKX 301920
RWRWI

WISCONSIN REGIONAL WEATHER ROUNDUP
NATIONAL WEATHER SERVICE MILWAUKEE/SULLIVAN WI
100 PM CST FRI JAN 30 2015

NOTE: "FAIR" INDICATES FEW OR NO CLOUDS BELOW 12,000 FEET WITH NO
SIGNIFICANT WEATHER AND/OR OBSTRUCTIONS TO VISIBILITY.

WIZ001-002-006>008-014>016-023>028-302000-
NORTHWEST WISCONSIN

CITY           SKY/WX    TMP DP  RH WIND       PRES   REMARKS
SUPERIOR ARPT  PTSUNNY   15   3  59 SW6       30.41F WCI   6
ASHLAND        CLOUDY    16   3  56 W8        30.42F WCI   5
HAYWARD        CLOUDY    14   2  58 VRB6      30.40F WCI   5
SIREN          CLOUDY    14   4  64 SW5       30.42F WCI   6
CUMBERLAND     CLOUDY    12   3  67 S7        30.40F WCI   2
RICE LAKE      PTSUNNY   13   3  64 SW6       30.44F WCI   4
CHETEK         PTSUNNY   13   3  64 S3        30.43F
LADYSMITH      SUNNY     16   5  63 SW5       30.43F WCI   9
EAU CLAIRE     PTSUNNY   15   3  59 W5        30.46F WCI   8
MENOMONIE      PTSUNNY   17   6  62 SE3       30.47F
NEW RICHMOND   PTSUNNY   17   7  64 S9        30.43F WCI   6
OSCEOLA        PTSUNNY   18   8  64 S7        30.46F WCI   9
$$

WIZ003>005-009-010-017-018-302000-
NORTH CENTRAL WISCONSIN

CITY           SKY/WX    TMP DP  RH WIND       PRES   REMARKS
MANITOWISH WTR PTSUNNY   14   2  59 SW8       30.35F WCI   2
ARBOR VITAE    MOSUNNY   17   5  60 S8        30.34F WCI   6
WOODRUFF       MOSUNNY   17   5  60 S8        30.34F WCI   6
RHINELANDER    MOSUNNY   15   4  61 W6        30.36F WCI   6
EAGLE RIVER    SUNNY     15   1  54 W3        30.34F
LAND O LAKES   SUNNY     17   4  56 SW3       30.34F
PHILLIPS       PTSUNNY   15   3  60 SW7       30.37F WCI   5
TOMAHAWK       PTSUNNY   16   3  56 CALM      30.38F
MEDFORD        PTSUNNY   14   4  66 SW7       30.39F WCI   4
MERRILL        PTSUNNY   16   4  61 SW6       30.39F WCI   7
$$

WIZ029-030-035-036-043>047-302000-
CENTRAL WISCONSIN

CITY           SKY/WX    TMP DP  RH WIND       PRES   REMARKS
WAUSAU         PTSUNNY   16   4  59 SW7       30.40F WCI   6
MOSINEE        SUNNY     16   7  67 MISG      30.42F
MARSHFIELD     PTSUNNY   16   5  62 W7        30.42F WCI   6
STEVENS POINT  MOSUNNY   17   4  56 W6        30.43F WCI   8
WAUPACA        PTSUNNY   24   7  48 SW7       30.46F WCI  16
WAUTOMA        MOSUNNY   22   6  50 NW6       30.47F WCI  15
WISC RAPIDS    PTSUNNY   19   4  51 SW8       30.46F WCI   9
CAMP DOUGLAS   CLOUDY    19   9  63 W2        30.46F
$$

WIZ011>013-019>022-031-037>040-048>050-302000-
NORTHEAST WISCONSIN

CITY           SKY/WX    TMP DP  RH WIND       PRES   REMARKS
ANTIGO         PTSUNNY   14   5  67 SW6       30.38F WCI   5
SHAWANO        PTSUNNY   21   6  52 S5        30.46F WCI  15
OCONTO         MOSUNNY   19   5  53 MISG      30.46F
STURGEON BAY   MOSUNNY   16   1  53 CALM      30.47F
GREEN BAY      PTSUNNY   19   7  59 W3        30.47F
MANITOWOC      MOSUNNY   25  10  53 W5        30.48F WCI  19
APPLETON       PTSUNNY   19   5  53 VRB5      30.46F WCI  13
CLINTONVILLE   CLOUDY    19   5  53 SW3       30.46F
OSHKOSH        MOSUNNY   19   7  59 CALM      30.46F
$$

WIZ032>034-041-042-053>061-302000-
SOUTHWEST WISCONSIN

CITY           SKY/WX    TMP DP  RH WIND       PRES   REMARKS
LA CROSSE      MOSUNNY   22   7  52 S8        30.49F WCI  12
SPARTA         CLOUDY    21   7  53 CALM      30.49F
VIROQUA        MOSUNNY   21   8  57 SW3       30.44F
BOSCOBEL       FAIR      23   8  52 S7        30.51F WCI  15
PRAIRIE DU CHI SUNNY     24   6  47 SW3       30.51F
PLATTEVILLE    SUNNY     23  13  65 S5        30.48F WCI  17
$$

WIZ056-057-062-063-064-067-068-302000-
SOUTH CENTRAL WISCONSIN

CITY           SKY/WX    TMP DP  RH WIND       PRES   REMARKS
REEDSBURG      MOSUNNY   21   9  60 SW3       30.47F
BARABOO/DELLS  MOSUNNY   20   8  59 W3        30.47F
LONE ROCK      PTSUNNY   22   8  55 W5        30.50F WCI  16
MINERAL POINT  MOSUNNY   25  12  58 NW5       30.47S WCI  19
MADISON        PTSUNNY   23   8  52 CALM      30.47F
MIDDLETON      MOSUNNY   26   8  47 W3        30.47F
WATERTOWN      SUNNY     23   9  55 W7        30.47F WCI  15
MONROE         MOSUNNY   27  12  54 SW5       30.45F WCI  21
JANESVILLE     MOSUNNY   25   9  50 VRB3      30.49F
$$

WIZ051-052-058>065-066-070>072-302000-
SOUTHEAST WISCONSIN

CITY           SKY/WX    TMP DP  RH WIND       PRES   REMARKS
MILWAUKEE      MOSUNNY   26   6  42 CALM      30.48F
WAUKESHA       MOSUNNY   21   7  53 W8        30.49F WCI  12
MILWAUKEE/TIMM SUNNY     25   3  39 CALM      30.49F
RACINE         MOSUNNY   26   9  48 VRB5      30.49F WCI  20
BURLINGTON     SUNNY     23   8  51 NW5       30.48F WCI  17
KENOSHA        SUNNY     25   8  48 W5        30.48F WCI  19
FOND DU LAC    MOSUNNY   22   6  50 CALM      30.46F
SHEBOYGAN      PTSUNNY   22   8  55 VRB3      30.47F
WEST BEND      SUNNY     23   5  46 W7        30.46F WCI  15
JUNEAU         SUNNY     20   8  58 SW3       30.47F
$$

LSZ147-162-302000-
LAKE SUPERIOR

STATION/POSITION TIME  TEMP    WIND        PRES    WAVE
                       AIR SEA DIR/SP/G            HT/PER
                 (UTC) (F)     (DEG/KT/KT) (MB)    (FT/S)
DEVILS ISLAND    1900   15     250/  9/ 13 1031.5F
PORT WING        1800   13     180/  3/  9 1031.5
SAXON HARBOR     1800   17     200/  4/  9 1030.8F
$$

LMZ867-665-643>646-302000-
LAKE MICHIGAN

STATION/POSITION TIME  TEMP    WIND        PRES    WAVE
                       AIR SEA DIR/SP/G            HT/PER
                 (UTC) (F)     (DEG/KT/KT) (MB)    (FT/S)
NORTHPORT PIER   1912   15     320/  7/ 11 1031.2F
SISTER BAY       1828   23     310/  8/  9   N/A
KEWAUNEE LAKESHO 1800   17     300/  4/  8 1032.1F
SHEBOYGAN LAKESH 1900   19      60/  3/  4 1033.5F
PORT WASHINGTON  1840   22     150/  4/  7 1033.5F
MILWAUKEE LAKESH 1900   23     100/  4/  5   N/A
KENOSHA   LAKESH 1900   23      60/  5/  7 1032.2F
$$

TC  - TEMPERATURE IN CELSIUS
VSB - VISIBILITY IN STATUTE MILES
WCI - WIND CHILL INDEX
HX  - HEAT INDEX




USA.gov is the U.S. government's official web portal to all federal, state and local government web resources and services.